Miscellaneous Local Product
Issued by NWS North Platte, NE

Home | Current Version | Previous Version | Text Only | Print | Product List | Glossary On
Versions: 1 2 3 4 5 6 7 8 9 10 11 12 13 14 15 16 17 18 19 20 21 22 23 24 25 26 27 28 29 30 31 32 33 34 35 36 37 38 39 40 41 42 43 44 45 46 47 48 49 50
000
AXUS43 KLBF 252310
MISLBF


WESTERN AND NORTH CENTRAL NEBRASKA HOURLY WEATHER ROUNDUP
NATIONAL WEATHER SERVICE NORTH PLATTE NE
600 PM CDT MON MAY 25 2015

***STATIONS NOT REPORTING VARIABLES SUCH AS SKY/WEATHER OR
PRESSURE ARE PROVIDED BY THE NEBRASKA DEPARTMENT OF
ROADS...RAWS...AND APRS NETWORKS...AND ARE NOT UNDER
NATIONAL WEATHER SERVICE QUALITY CONTROL***

...OBSERVATIONS IN AND NEAR THE EASTERN PANHANDLE OF NEBRASKA...

CITY           SKY/WX    TMP DP  RH WIND       PRES   REMARKS
PINE RIDGE     HVY RAIN  54  50  86 W6        29.86R FOG
CHADRON        CLOUDY    61  52  72 N8        29.86R
ALLIANCE       CLOUDY    56  52  86 W5        29.87S
SIDNEY         CLOUDY    53  49  86 N12       29.90S
WHITECLAY        N/A     54  52  92 W9          N/A
BIG SPRINGS      N/A     59  54  84 NW12        N/A
$$

...OBSERVATIONS IN NORTH CENTRAL NEBRASKA...

CITY           SKY/WX    TMP DP  RH WIND       PRES   REMARKS
VALENTINE      CLOUDY    57  53  86 NW9       29.82S
THEDFORD       PTSUNNY   62  54  75 N12       29.81S
AINSWORTH      PTSUNNY   60  56  86 NW10      29.80F
O`NEILL        MOSUNNY   68  60  75 N13       29.76F
ORD            SUNNY     72  53  51 W3        29.71F
BROKEN BOW     SUNNY     72  54  53 W12       29.75F
BROWNLEE         N/A     61  52  71 W12         N/A
VALENTINE NWR    N/A     57  56  96 NW9         N/A
SPRINGVIEW       N/A     60  57  91 NW6         N/A
HALSEY           N/A     64  53  68 NW7         N/A
BREWSTER         N/A     72  54  53 W10         N/A
ROSE             N/A     69  56  63 SW6         N/A
NEWPORT          N/A     66  58  74 NW5         N/A
SARGENT          N/A     71  53  52 NW6G14      N/A
COMSTOCK         N/A     80  55  42 W7          N/A
EWING            N/A     76  59  54 W7          N/A
$$

...OBSERVATIONS IN SOUTHWEST NEBRASKA AND FAR NORTHEAST COLORADO...

CITY           SKY/WX    TMP DP  RH WIND       PRES   REMARKS
WRAY           FAIR      65  46  49 NW20G26   29.86S
IMPERIAL       MOSUNNY   62  49  62 NW15G22   29.82S
OGALLALA       PTSUNNY   62  52  70 NW9       29.80F
NORTH PLATTE   PTSUNNY   67  50  54 W13       29.78F
MCCOOK         SUNNY     71  50  47 W17G25    29.77F
LEXINGTON      SUNNY     74  53  48 SW10      29.74F
PAXTON           N/A     61  55  79 W6          N/A
GOTHENBURG       N/A     71  47  41 W7          N/A
CALLAWAY         N/A     70  58  64 W12         N/A
$$

...NORTH PLATTE AREA...

CITY           SKY/WX    TMP DP  RH WIND       PRES   REMARKS
AIRPORT        PTSUNNY   67  50  54 W13       29.78F
DOWNTOWN         N/A     68  50  52 W6G13       N/A
$$

...SOME WEATHER OBSERVATIONS FROM AROUND THE REGION...

CITY           SKY/WX    TMP DP  RH WIND       PRES   REMARKS
DENVER         PTSUNNY   62  45  53 E17G26    29.91S
LARAMIE        CLOUDY    53  37  54 NW14      29.98R
CHEYENNE       CLOUDY    57  38  48 N16       29.95R
SCOTTSBLUFF    CLOUDY    56  52  86 SW5       29.89S
RAPID CITY     LGT RAIN  57  54  89 NE6       29.87R
PIERRE         CLOUDY    61  52  72 NE10      29.83R
WINNER         LGT RAIN  60  57  89 N5        29.80F FOG
SIOUX FALLS    TSTM      65  59  81 NW6       29.76F
OMAHA          PTSUNNY   80  60  50 S16       29.73F
GRAND ISLAND   MOSUNNY   76  56  49 VRB5      29.73F
KANSAS CITY    MOSUNNY   78  65  63 S20G26    29.81S
WICHITA        TSTM      72  67  84 S13       29.79S
HAYS           CLOUDY    73  57  56 S10       29.78R
LIBERAL        CLOUDY    73  52  46 S18       29.84F
GOODLAND       SUNNY     69  47  45 NW17      29.84F
$$



USA.gov is the U.S. government's official web portal to all federal, state and local government web resources and services.